Weather History for KTRM - March, 2012

Change the Weather History Date:

Saturday, March 17, 2012

  Actual Average Record
Temperature  
Mean Temperature 63 °F 64 °F  
Max Temperature 74 °F 81 °F 102 °F (2007)
Min Temperature 52 °F 47 °F 33 °F (2002)
Degree Days  
Heating Degree Days 2 3  
Month to date heating degree days 65 64  
Since 1 July heating degree days 1183 1129  
Cooling Degree Days 0 2  
Month to date cooling degree days 24 25  
Year to date cooling degree days 27 37  
Growing Degree Days 14 (Base 50)    
Moisture  
Dew Point 41 °F    
Average Humidity 44    
Maximum Humidity 59    
Minimum Humidity 29    
Precipitation  
Precipitation 0.02 in 0.01 in 0.07 in (1963)
Month to date precipitation 0.02 0.29  
Year to date precipitation 0.29 1.62  
Since 1 July precipitation 1.28  
Snow  
Snow 0.00 in - - ()
Month to date snowfall 0.0  
Year to date snowfall 0.0  
Since 1 July snowfall 0.0  
Snow Depth 0.00 in    
Sea Level Pressure  
Sea Level Pressure 29.66 in    
Wind  
Wind Speed 14 mph (NNW)    
Max Wind Speed 30 mph    
Max Gust Speed 44 mph    
Visibility 10 miles    
Events Rain    
T = Trace of Precipitation, MM = Missing Value Source: NWS Daily Summary

Daily Weather History Graph

Daily Weather History Graph

Search for Another Location

Airport or City:

Trip Planner

Search our weather history database for the weather conditions in past years. The results will help you decide how hot, cold, wet, or windy it might be!

Date:

Astronomy

Mar. 17, 2012 Rise Set
Actual Time 6:51 AM PDT 6:54 PM PDT
Civil Twilight 6:26 AM PDT 7:19 PM PDT
Nautical Twilight 5:57 AM PDT 7:48 PM PDT
Astronomical Twilight 5:28 AM PDT 8:17 PM PDT
Moon 3:43 AM PDT (3/17) 2:34 PM PDT (3/17)
Length of Visible Light 12h 52m
Length of Day
12h 02m
Waning Crescent, 22% of the Moon is Illuminated
Mar 17
Waning Crescent
Mar 22
New
Mar 30
First Quarter
Apr 6
Full
Apr 13
Last Quarter

Hourly Weather History & Observations

Time (PDT) Temp. Dew Point Humidity Pressure Visibility Wind Dir Wind Speed Gust Speed Precip Events Conditions
12:52 AM 66.0 °F 45.0 °F 47% 29.73 in 10.0 mi NW 16.1 mph 25.3 mph N/A   Clear
1:52 AM 64.9 °F 45.0 °F 48% 29.72 in 10.0 mi NNW 20.7 mph 27.6 mph N/A   Clear
2:52 AM 64.9 °F 44.1 °F 47% 29.70 in 10.0 mi NNW 15.0 mph 25.3 mph N/A   Clear
3:52 AM 64.9 °F 43.0 °F 45% 29.70 in 10.0 mi NNW 15.0 mph 23.0 mph N/A   Clear
4:52 AM 63.0 °F 43.0 °F 48% 29.71 in 10.0 mi North 10.4 mph - N/A   Clear
5:52 AM 63.0 °F 43.0 °F 48% 29.71 in 10.0 mi North 9.2 mph - N/A   Clear
6:52 AM 63.0 °F 42.1 °F 46% 29.71 in 10.0 mi Calm Calm - N/A   Clear
7:52 AM 64.9 °F 41.0 °F 42% 29.70 in 10.0 mi Variable 4.6 mph - N/A   Scattered Clouds
8:52 AM 69.1 °F 42.1 °F 38% 29.70 in 10.0 mi Variable 3.5 mph - N/A   Clear
9:52 AM 70.0 °F 42.1 °F 36% 29.70 in 10.0 mi East 5.8 mph - N/A   Clear
10:52 AM 73.0 °F 39.9 °F 30% 29.68 in 10.0 mi ENE 5.8 mph - N/A   Partly Cloudy
11:52 AM 73.0 °F 42.1 °F 33% 29.65 in 10.0 mi SSE 15.0 mph 24.2 mph N/A   Overcast
12:52 PM 73.0 °F 43.0 °F 34% 29.63 in 10.0 mi SE 16.1 mph 25.3 mph N/A   Overcast
1:52 PM 73.0 °F 43.0 °F 34% 29.59 in 10.0 mi SE 13.8 mph 25.3 mph N/A   Overcast
2:52 PM 71.1 °F 46.9 °F 42% 29.61 in 10.0 mi West 18.4 mph 23.0 mph 0.00 in Rain Light Rain
3:05 PM 69.8 °F 46.4 °F 43% 29.62 in 10.0 mi WSW 17.3 mph 25.3 mph 0.00 in Rain Light Rain
3:52 PM 64.9 °F 50.0 °F 58% 29.62 in 10.0 mi North 4.6 mph - 0.02 in   Mostly Cloudy
4:52 PM 66.0 °F 46.0 °F 48% 29.58 in 10.0 mi NNE 11.5 mph - N/A   Mostly Cloudy
5:52 PM 64.9 °F 45.0 °F 48% 29.60 in 10.0 mi NNE 9.2 mph 17.3 mph N/A   Mostly Cloudy
6:52 PM 54.0 °F 39.9 °F 59% 29.63 in 10.0 mi North 20.7 mph 34.5 mph N/A   Mostly Cloudy
7:52 PM 57.0 °F 34.0 °F 42% 29.65 in 10.0 mi WNW 23.0 mph 32.2 mph N/A   Mostly Cloudy
8:52 PM 55.9 °F 33.1 °F 42% 29.66 in 10.0 mi WNW 26.5 mph 34.5 mph N/A   Mostly Cloudy
9:52 PM 55.9 °F 30.9 °F 39% 29.67 in 10.0 mi WNW 19.6 mph 33.4 mph N/A   Clear
10:52 PM 55.9 °F 28.9 °F 36% 29.67 in 10.0 mi NW 23.0 mph 31.1 mph N/A   Clear
11:52 PM 53.1 °F 33.1 °F 47% 29.68 in 10.0 mi NNW 13.8 mph 20.7 mph N/A   Mostly Cloudy